| time (UTC) | temp F | wind direction | speed MPH | gust MPH | rain 1hr in | rain 24hr in | rain mn in | humidity % | barometer mb |
| 20260504182532 | 35 | 145 | 1.0 | 10.0 | 0.00 | 0.06 | 0.06 | 82 | 1002.4 |
| 20260504182034 | 36 | 146 | 5.0 | 10.0 | 0.00 | 0.06 | 0.06 | 82 | 1002.3 |
| 20260504181542 | 36 | 132 | 2.0 | 10.0 | 0.00 | 0.06 | 0.06 | 82 | 1002.2 |
| 20260504181030 | 36 | 145 | 2.0 | 10.0 | 0.00 | 0.06 | 0.06 | 81 | 1002.3 |
| 20260504180530 | 36 | 160 | 2.0 | 7.0 | 0.00 | 0.06 | 0.06 | 80 | 1002.3 |
| 20260504180042 | 36 | 92 | 1.0 | 7.0 | 0.00 | 0.06 | 0.06 | 79 | 1002.2 |
| 20260504175531 | 36 | 108 | 2.0 | 9.0 | 0.00 | 0.06 | 0.06 | 79 | 1002.1 |
| 20260504175030 | 36 | 109 | 2.0 | 9.0 | 0.00 | 0.06 | 0.06 | 78 | 1002.2 |
| 20260504174542 | 36 | 59 | 3.0 | 9.0 | 0.00 | 0.06 | 0.06 | 78 | 1002.1 |
| 20260504174031 | 36 | 25 | 2.0 | 12.0 | 0.00 | 0.06 | 0.06 | 79 | 1002.1 |
| 20260504173533 | 36 | 134 | 4.0 | 13.0 | 0.00 | 0.06 | 0.06 | 79 | 1002.0 |
| 20260504173041 | 36 | 15 | 4.0 | 13.0 | 0.00 | 0.06 | 0.06 | 78 | 1002.1 |
| 20260504172530 | 37 | 152 | 4.0 | 9.0 | 0.00 | 0.06 | 0.06 | 77 | 1001.7 |
| 20260504172030 | 37 | 159 | 2.0 | 8.0 | 0.00 | 0.06 | 0.06 | 78 | 1002.1 |
| 20260504171546 | 37 | 97 | 2.0 | 11.0 | 0.00 | 0.06 | 0.06 | 77 | 1001.8 |
| 20260504171031 | 37 | 283 | 4.0 | 13.0 | 0.00 | 0.06 | 0.06 | 76 | 1001.7 |
| 20260504170531 | 37 | 204 | 4.0 | 13.0 | 0.00 | 0.06 | 0.06 | 75 | 1001.5 |
| 20260504151034 | 42 | 202 | 4.0 | 14.0 | 0.00 | 0.06 | 0.06 | 60 | 1001.4 |
| 20260504150530 | 42 | 183 | 2.0 | 12.0 | 0.00 | 0.06 | 0.06 | 62 | 1001.5 |
| 20260504141031 | 42 | 162 | 2.0 | 11.0 | 0.00 | 0.06 | 0.06 | 65 | 1001.7 |
| 20260504140531 | 42 | 142 | 3.0 | 11.0 | 0.00 | 0.06 | 0.06 | 58 | 1001.6 |
| 20260504130530 | 43 | 212 | 1.0 | 13.0 | 0.00 | 0.06 | 0.06 | 67 | 1001.1 |
| 20260504110530 | 40 | 131 | 3.0 | 12.0 | 0.01 | 0.06 | 0.06 | 78 | 1000.8 |
| 20260504100529 | 43 | 111 | 5.0 | 13.0 | 0.00 | 0.05 | 0.05 | 59 | 1000.6 |
| 20260504081540 | 41 | 200 | 4.0 | 15.0 | 0.01 | 0.05 | 0.05 | 76 | 1000.8 |
| 20260504081030 | 40 | 91 | 3.0 | 11.0 | 0.01 | 0.05 | 0.05 | 80 | 1000.8 |
| 20260504080532 | 39 | 64 | 4.0 | 16.0 | 0.01 | 0.05 | 0.05 | 80 | 1000.7 |
| 20260504050530 | 37 | 346 | 0.0 | 4.0 | 0.01 | 0.01 | 0.01 | 87 | 1000.2 |
| 20260504045529 | 38 | 192 | 2.0 | 6.0 | 0.00 | 0.00 | 0.00 | 85 | 1000.0 |
| 20260504045029 | 37 | 83 | 2.0 | 7.0 | 0.00 | 0.00 | 0.00 | 85 | 999.8 |
| 20260504044543 | 37 | 250 | 1.0 | 7.0 | 0.00 | 0.00 | 0.00 | 84 | 999.7 |
| 20260504044032 | 37 | 150 | 1.0 | 6.0 | 0.00 | 0.00 | 0.00 | 83 | 999.7 |
| 20260504043531 | 37 | 141 | 2.0 | 6.0 | 0.00 | 0.00 | 0.00 | 83 | 999.7 |
| 20260504043040 | 37 | 143 | 3.0 | 6.0 | 0.00 | 0.00 | 0.00 | 83 | 999.5 |
| 20260504042531 | 37 | 143 | 1.0 | 8.0 | 0.00 | 0.00 | 0.00 | 82 | 999.6 |
| 20260504042033 | 37 | 139 | 2.0 | 8.0 | 0.00 | 0.00 | 0.00 | 82 | 999.6 |
| 20260504041549 | 37 | 162 | 2.0 | 6.0 | 0.00 | 0.00 | 0.00 | 81 | 999.5 |
| 20260504041030 | 38 | 149 | 1.0 | 4.0 | 0.00 | 0.00 | 0.00 | 81 | 999.6 |
| 20260504040530 | 38 | 141 | 1.0 | 4.0 | 0.00 | 0.00 | 0.00 | 80 | 999.5 |
| 20260504040048 | 38 | 89 | 0.0 | 6.0 | 0.00 | 0.00 | 0.00 | 79 | 999.6 |
| 20260504035530 | 38 | 148 | 2.0 | 6.0 | 0.00 | 0.00 | 0.00 | 79 | 999.6 |
| 20260504035029 | 38 | 148 | 2.0 | 8.0 | 0.00 | 0.00 | 0.00 | 78 | 999.7 |
| 20260504034600 | 39 | 102 | 2.0 | 8.0 | 0.00 | 0.00 | 0.00 | 78 | 999.7 |
| 20260504034029 | 39 | 146 | 2.0 | 7.0 | 0.00 | 0.00 | 0.00 | 77 | 999.6 |
| 20260504033532 | 39 | 0 | 1.0 | 6.0 | 0.00 | 0.00 | 0.00 | 77 | 999.7 |
| 20260504033048 | 38 | 88 | 1.0 | 6.0 | 0.00 | 0.00 | 0.00 | 77 | 999.6 |
| 20260504032531 | 38 | 118 | 0.0 | 5.0 | 0.00 | 0.00 | 0.00 | 78 | 999.7 |
| 20260504032031 | 37 | 0 | 0.0 | 5.0 | 0.00 | 0.00 | 0.00 | 79 | 999.8 |
| 20260504031542 | 37 | 124 | 0.0 | 3.0 | 0.00 | 0.00 | 0.00 | 79 | 999.9 |
| 20260504031029 | 37 | 0 | 1.0 | 3.0 | 0.00 | 0.00 | 0.00 | 79 | 999.7 |
| 20260504030530 | 37 | 0 | 0.0 | 2.0 | 0.00 | 0.00 | 0.00 | 80 | 999.7 |
| 20260504030049 | 37 | 125 | 0.0 | 1.0 | 0.00 | 0.00 | 0.00 | 80 | 999.7 |
| 20260504025530 | 37 | 0 | 0.0 | 2.0 | 0.00 | 0.00 | 0.00 | 81 | 999.6 |
| 20260504025032 | 37 | 148 | 0.0 | 2.0 | 0.00 | 0.00 | 0.00 | 81 | 999.6 |
| 20260504024542 | 37 | 132 | 0.0 | 4.0 | 0.00 | 0.00 | 0.00 | 81 | 999.6 |
| 20260504024034 | 36 | 0 | 1.0 | 4.0 | 0.00 | 0.00 | 0.00 | 82 | 999.7 |
| 20260504023530 | 36 | 0 | 0.0 | 1.0 | 0.00 | 0.00 | 0.00 | 84 | 999.6 |
| 20260504023045 | 36 | 0 | 0.0 | 3.0 | 0.00 | 0.00 | 0.00 | 83 | 999.7 |
| 20260504022528 | 36 | 0 | 0.0 | 3.0 | 0.00 | 0.00 | 0.00 | 84 | 999.6 |
| 20260504022029 | 36 | 0 | 0.0 | 2.0 | 0.00 | 0.00 | 0.00 | 84 | 999.6 |
| 20260504021543 | 36 | 0 | 0.0 | 2.0 | 0.00 | 0.00 | 0.00 | 84 | 999.6 |
| 20260504021033 | 36 | 82 | 0.0 | 2.0 | 0.00 | 0.00 | 0.00 | 83 | 999.6 |
| 20260504020529 | 36 | 0 | 0.0 | 1.0 | 0.00 | 0.00 | 0.00 | 83 | 999.7 |
| 20260504020041 | 36 | 0 | 0.0 | 1.0 | 0.00 | 0.00 | 0.00 | 83 | 999.6 |
| 20260504015531 | 36 | 0 | 0.0 | 0.0 | 0.00 | 0.00 | 0.00 | 84 | 999.7 |
| 20260504015030 | 36 | 0 | 0.0 | 0.0 | 0.00 | 0.00 | 0.00 | 85 | 999.8 |
| 20260504014553 | 36 | 0 | 0.0 | 0.0 | 0.00 | 0.00 | 0.00 | 85 | 999.8 |
| 20260504014033 | 36 | 0 | 0.0 | 0.0 | 0.00 | 0.00 | 0.00 | 85 | 999.8 |
| 20260504013532 | 36 | 0 | 0.0 | 0.0 | 0.00 | 0.00 | 0.00 | 85 | 999.8 |
| 20260504013042 | 35 | 0 | 0.0 | 1.0 | 0.00 | 0.00 | 0.00 | 85 | 999.9 |
| 20260504012530 | 35 | 0 | 0.0 | 2.0 | 0.00 | 0.00 | 0.00 | 85 | 1000.0 |
| 20260504012030 | 36 | 0 | 0.0 | 2.0 | 0.00 | 0.00 | 0.00 | 83 | 1000.0 |
| 20260504011544 | 36 | 0 | 0.0 | 3.0 | 0.00 | 0.00 | 0.00 | 83 | 999.9 |
| 20260504011029 | 36 | 0 | 0.0 | 3.0 | 0.00 | 0.00 | 0.00 | 83 | 1000.1 |
| 20260504010530 | 36 | 140 | 0.0 | 4.0 | 0.00 | 0.00 | 0.00 | 84 | 1000.2 |
| 20260504010045 | 36 | 116 | 0.0 | 4.0 | 0.00 | 0.00 | 0.00 | 84 | 1000.3 |
| 20260504005531 | 36 | 0 | 0.0 | 3.0 | 0.00 | 0.00 | 0.00 | 84 | 1000.3 |
| 20260504005031 | 36 | 165 | 0.0 | 3.0 | 0.00 | 0.00 | 0.00 | 84 | 1000.3 |
| 20260504004543 | 36 | 138 | 1.0 | 2.0 | 0.00 | 0.00 | 0.00 | 84 | 1000.5 |
| 20260504004030 | 36 | 147 | 1.0 | 2.0 | 0.00 | 0.00 | 0.00 | 84 | 1000.6 |
| 20260504003531 | 35 | 0 | 0.0 | 2.0 | 0.00 | 0.00 | 0.00 | 84 | 1000.7 |
| 20260504003049 | 35 | 0 | 0.0 | 2.0 | 0.00 | 0.00 | 0.00 | 84 | 1000.8 |
| 20260504002530 | 35 | 0 | 0.0 | 2.0 | 0.00 | 0.00 | 0.00 | 84 | 1000.8 |
| 20260504002030 | 35 | 0 | 0.0 | 2.0 | 0.00 | 0.00 | 0.00 | 84 | 1000.9 |
| 20260504001542 | 35 | 0 | 0.0 | 2.0 | 0.00 | 0.00 | 0.00 | 84 | 1001.1 |
| 20260504001030 | 35 | 0 | 0.0 | 2.0 | 0.00 | 0.00 | 0.00 | 84 | 1001.2 |
| 20260504000530 | 35 | 0 | 0.0 | 1.0 | 0.00 | 0.00 | 0.00 | 83 | 1001.3 |
| 20260504000049 | 35 | 244 | 0.0 | 1.0 | 0.00 | 0.00 | 0.00 | 84 | 1001.3 |
| 20260503235554 | 35 | 254 | 0.0 | 2.0 | 0.00 | 0.00 | 0.00 | 84 | 1001.2 |
| 20260503235030 | 35 | 0 | 0.0 | 2.0 | 0.00 | 0.00 | 0.00 | 84 | 1001.4 |
| 20260503234548 | 35 | 249 | 1.0 | 2.0 | 0.00 | 0.00 | 0.00 | 84 | 1001.4 |
| 20260503234031 | 35 | 238 | 0.0 | 3.0 | 0.00 | 0.00 | 0.00 | 84 | 1001.5 |
| 20260503233530 | 35 | 127 | 0.0 | 3.0 | 0.00 | 0.00 | 0.00 | 84 | 1001.6 |
| 20260503233040 | 35 | 263 | 1.0 | 2.0 | 0.00 | 0.00 | 0.00 | 84 | 1001.6 |
| 20260503232530 | 35 | 231 | 1.0 | 2.0 | 0.00 | 0.00 | 0.00 | 84 | 1001.7 |
| 20260503232031 | 35 | 244 | 0.0 | 2.0 | 0.00 | 0.00 | 0.00 | 84 | 1001.8 |
| 20260503231542 | 35 | 257 | 1.0 | 2.0 | 0.00 | 0.00 | 0.00 | 84 | 1001.9 |
| 20260503231033 | 35 | 247 | 1.0 | 2.0 | 0.00 | 0.00 | 0.00 | 84 | 1001.9 |
| 20260503230530 | 35 | 268 | 1.0 | 2.0 | 0.00 | 0.00 | 0.00 | 84 | 1001.9 |
| 20260503230043 | 35 | 264 | 1.0 | 2.0 | 0.00 | 0.00 | 0.00 | 84 | 1002.1 |
| 20260503225534 | 35 | 241 | 1.0 | 2.0 | 0.00 | 0.00 | 0.00 | 83 | 1002.0 |
| 20260503225031 | 35 | 213 | 1.0 | 2.0 | 0.00 | 0.00 | 0.00 | 83 | 1002.2 |
| 20260503224544 | 35 | 252 | 1.0 | 2.0 | 0.00 | 0.00 | 0.00 | 84 | 1002.3 |
| 20260503224030 | 35 | 242 | 1.0 | 2.0 | 0.00 | 0.00 | 0.00 | 83 | 1002.4 |
| 20260503223530 | 35 | 236 | 1.0 | 2.0 | 0.00 | 0.00 | 0.00 | 83 | 1002.4 |
| 20260503223042 | 35 | 231 | 0.0 | 3.0 | 0.00 | 0.00 | 0.00 | 83 | 1002.4 |
| 20260503222530 | 35 | 252 | 1.0 | 3.0 | 0.00 | 0.00 | 0.00 | 83 | 1002.5 |
| 20260503222030 | 35 | 250 | 1.0 | 3.0 | 0.00 | 0.00 | 0.00 | 83 | 1002.6 |
| 20260503221544 | 35 | 245 | 0.0 | 2.0 | 0.00 | 0.00 | 0.00 | 83 | 1002.6 |
| 20260503221031 | 35 | 0 | 0.0 | 2.0 | 0.00 | 0.00 | 0.00 | 83 | 1002.6 |
| 20260503220533 | 35 | 229 | 1.0 | 2.0 | 0.00 | 0.00 | 0.00 | 83 | 1002.7 |
| 20260503220049 | 35 | 250 | 0.0 | 2.0 | 0.00 | 0.00 | 0.00 | 83 | 1002.7 |
| 20260503215530 | 36 | 0 | 1.0 | 1.0 | 0.00 | 0.00 | 0.00 | 82 | 1002.8 |
| 20260503215031 | 36 | 255 | 1.0 | 1.0 | 0.00 | 0.00 | 0.00 | 82 | 1002.9 |
| 20260503214540 | 36 | 248 | 0.0 | 1.0 | 0.00 | 0.00 | 0.00 | 83 | 1003.1 |
| 20260503214031 | 36 | 257 | 1.0 | 1.0 | 0.00 | 0.00 | 0.00 | 82 | 1003.1 |
| 20260503213530 | 36 | 0 | 0.0 | 0.0 | 0.00 | 0.00 | 0.00 | 82 | 1003.1 |
| 20260503213055 | 36 | 0 | 0.0 | 0.0 | 0.00 | 0.00 | 0.00 | 82 | 1003.2 |
| 20260503212530 | 36 | 0 | 0.0 | 0.0 | 0.00 | 0.00 | 0.00 | 82 | 1003.3 |
| 20260503212031 | 36 | 0 | 0.0 | 0.0 | 0.00 | 0.00 | 0.00 | 82 | 1003.4 |
| 20260503211547 | 36 | 0 | 0.0 | 0.0 | 0.00 | 0.00 | 0.00 | 81 | 1003.5 |
| 20260503211031 | 36 | 0 | 0.0 | 0.0 | 0.00 | 0.00 | 0.00 | 81 | 1003.5 |
| 20260503210531 | 37 | 0 | 0.0 | 0.0 | 0.00 | 0.00 | 0.00 | 81 | 1003.6 |
| 20260503210041 | 37 | 0 | 0.0 | 0.0 | 0.00 | 0.00 | 0.00 | 81 | 1003.7 |
| 20260503205534 | 36 | 0 | 0.0 | 0.0 | 0.00 | 0.00 | 0.00 | 82 | 1003.8 |
| 20260503205031 | 36 | 0 | 0.0 | 0.0 | 0.00 | 0.00 | 0.00 | 82 | 1003.9 |
| 20260503204542 | 36 | 0 | 0.0 | 0.0 | 0.00 | 0.00 | 0.00 | 82 | 1003.9 |
| 20260503204030 | 36 | 0 | 0.0 | 0.0 | 0.00 | 0.00 | 0.00 | 82 | 1004.0 |
| 20260503203530 | 37 | 0 | 0.0 | 0.0 | 0.00 | 0.00 | 0.00 | 81 | 1004.1 |
| 20260503203041 | 37 | 0 | 0.0 | 0.0 | 0.00 | 0.00 | 0.00 | 81 | 1004.2 |
| 20260503202530 | 37 | 0 | 0.0 | 0.0 | 0.00 | 0.00 | 0.00 | 81 | 1004.2 |
| 20260503202030 | 37 | 0 | 0.0 | 0.0 | 0.00 | 0.00 | 0.00 | 81 | 1004.2 |
| 20260503201547 | 37 | 0 | 0.0 | 1.0 | 0.00 | 0.00 | 0.00 | 81 | 1004.3 |
| 20260503201030 | 37 | 0 | 0.0 | 1.0 | 0.00 | 0.00 | 0.00 | 81 | 1004.4 |
| 20260503200530 | 37 | 0 | 0.0 | 1.0 | 0.00 | 0.00 | 0.00 | 80 | 1004.4 |
| 20260503200050 | 37 | 0 | 0.0 | 1.0 | 0.00 | 0.00 | 0.00 | 80 | 1004.5 |
| 20260503195531 | 38 | 0 | 0.0 | 1.0 | 0.00 | 0.00 | 0.00 | 79 | 1004.6 |
| 20260503195031 | 38 | 0 | 0.0 | 1.0 | 0.00 | 0.00 | 0.00 | 79 | 1004.7 |
| 20260503194544 | 38 | 0 | 0.0 | 1.0 | 0.00 | 0.00 | 0.00 | 78 | 1004.7 |
| 20260503194031 | 38 | 0 | 0.0 | 1.0 | 0.00 | 0.00 | 0.00 | 78 | 1004.8 |
| 20260503193531 | 39 | 0 | 0.0 | 2.0 | 0.00 | 0.00 | 0.00 | 77 | 1004.9 |
| 20260503193048 | 39 | 0 | 0.0 | 3.0 | 0.00 | 0.00 | 0.00 | 77 | 1004.9 |
| 20260503192530 | 39 | 0 | 0.0 | 3.0 | 0.00 | 0.00 | 0.00 | 76 | 1004.9 |
| 20260503192032 | 39 | 0 | 0.0 | 2.0 | 0.00 | 0.00 | 0.00 | 76 | 1004.8 |
| 20260503191540 | 39 | 0 | 0.0 | 2.0 | 0.00 | 0.00 | 0.00 | 75 | 1004.9 |
| 20260503191030 | 39 | 0 | 0.0 | 0.0 | 0.00 | 0.00 | 0.00 | 75 | 1004.8 |
| 20260503190530 | 39 | 0 | 0.0 | 0.0 | 0.00 | 0.00 | 0.00 | 75 | 1004.9 |
| 20260503190041 | 39 | 0 | 0.0 | 0.0 | 0.00 | 0.00 | 0.00 | 74 | 1004.9 |
| 20260503185531 | 40 | 0 | 0.0 | 0.0 | 0.00 | 0.00 | 0.00 | 74 | 1005.0 |
| 20260503185030 | 40 | 0 | 0.0 | 0.0 | 0.00 | 0.00 | 0.00 | 71 | 1004.9 |
| 20260503184600 | 40 | 0 | 0.0 | 0.0 | 0.00 | 0.00 | 0.00 | 70 | 1004.9 |
| 20260503184031 | 40 | 0 | 0.0 | 0.0 | 0.00 | 0.00 | 0.00 | 70 | 1004.9 |
| 20260503183531 | 40 | 0 | 0.0 | 0.0 | 0.00 | 0.00 | 0.00 | 70 | 1004.9 |
| 20260503183055 | 40 | 0 | 0.0 | 0.0 | 0.00 | 0.00 | 0.00 | 70 | 1004.9 |